Millville, NJ

7:32 PM EST on February 26, 2017 (GMT -0500)
Millville Municipal

Weather History for KMIV - April, 2014

Change the Weather History Date:

Friday, April 18, 2014

  Actual Average Record
Temperature  
Mean Temperature 46 °F -  
Max Temperature 54 °F 64 °F 89 °F (1976)
Min Temperature 39 °F 42 °F 28 °F (2001)
Degree Days  
Heating Degree Days 19    
Moisture  
Dew Point 34 °F    
Average Humidity 69    
Maximum Humidity 86    
Minimum Humidity 50    
Precipitation  
Precipitation 0.00 in - - ()
Sea Level Pressure  
Sea Level Pressure 30.44 in    
Wind  
Wind Speed 6 mph (ENE)    
Max Wind Speed 10 mph    
Max Gust Speed -    
Visibility 10 miles    
Events Rain    
Averages and records for this station are not official NWS values.
T = Trace of Precipitation, MM = Missing Value Source: NWS Daily Summary

Daily Weather History Graph

Daily Weather History Graph

Search for Another Location

Airport or City:

Trip Planner

Search our weather history database for the weather conditions in past years. The results will help you decide how hot, cold, wet, or windy it might be!

Date:

Astronomy

Apr. 18, 2014 Rise Set
Actual Time 6:18 AM EDT 7:40 PM EDT
Civil Twilight 5:50 AM EDT 8:08 PM EDT
Nautical Twilight 5:17 AM EDT 8:42 PM EDT
Astronomical Twilight 4:42 AM EDT 9:17 PM EDT
Moon 11:23 PM EDT (4/18) 8:39 AM EDT (4/18)
Length of Visible Light 14h 17m
Length of Day
13h 22m
Waning Gibbous, 87% of the Moon is Illuminated
Apr 18
Waning Gibbous
Apr 22
Last Quarter
Apr 29
New
May 6
First Quarter
May 14
Full

Hourly Weather History & Observations

Time (EDT) Temp. Windchill Dew Point Humidity Pressure Visibility Wind Dir Wind Speed Gust Speed Precip Events Conditions
12:54 AM 39.0 °F 35.7 °F 30.9 °F 73% 30.60 in 10.0 mi NE 4.6 mph - N/A   Overcast
1:54 AM 39.0 °F 34.0 °F 30.9 °F 73% 30.57 in 10.0 mi NE 6.9 mph - N/A   Overcast
2:54 AM 39.0 °F 33.4 °F 30.9 °F 73% 30.53 in 10.0 mi NE 8.1 mph - N/A   Overcast
3:54 AM 39.0 °F 32.8 °F 32.0 °F 76% 30.50 in 10.0 mi ENE 9.2 mph - N/A   Overcast
4:54 AM 39.0 °F 34.8 °F 32.0 °F 76% 30.49 in 10.0 mi NE 5.8 mph - N/A   Overcast
5:54 AM 39.0 °F 33.4 °F 30.9 °F 73% 30.49 in 10.0 mi NE 8.1 mph - N/A   Overcast
6:54 AM 39.0 °F 34.8 °F 32.0 °F 76% 30.53 in 10.0 mi ENE 5.8 mph - N/A   Overcast
7:54 AM 39.0 °F 33.4 °F 32.0 °F 76% 30.53 in 10.0 mi ENE 8.1 mph - N/A   Overcast
8:54 AM 39.9 °F 33.9 °F 32.0 °F 73% 30.51 in 10.0 mi NE 9.2 mph - N/A   Overcast
9:54 AM 43.0 °F 37.2 °F 32.0 °F 65% 30.49 in 10.0 mi NE 10.4 mph - N/A   Overcast
10:54 AM 46.0 °F 43.1 °F 33.1 °F 61% 30.49 in 10.0 mi Variable 5.8 mph - N/A   Mostly Cloudy
11:25 AM 46.0 °F 42.5 °F 33.1 °F 61% 30.47 in 10.0 mi North 6.9 mph - N/A   Mostly Cloudy
11:54 AM 48.0 °F - 35.1 °F 61% 30.47 in 10.0 mi NE 5.8 mph - N/A   Partly Cloudy
12:54 PM 50.0 °F - 35.1 °F 57% 30.45 in 10.0 mi North 4.6 mph - N/A   Clear
1:54 PM 52.0 °F - 34.0 °F 50% 30.42 in 10.0 mi Variable 3.5 mph - N/A   Clear
2:54 PM 53.1 °F - 37.0 °F 55% 30.39 in 10.0 mi Variable 4.6 mph - N/A   Clear
3:54 PM 52.0 °F - 37.0 °F 57% 30.36 in 10.0 mi Variable 4.6 mph - N/A   Clear
4:54 PM 52.0 °F - 37.9 °F 59% 30.35 in 10.0 mi WSW 9.2 mph - 0.00 in Rain Light Rain
5:54 PM 48.9 °F - 37.9 °F 66% 30.34 in 10.0 mi SW 8.1 mph - 0.00 in   Clear
6:54 PM 46.9 °F - 37.9 °F 71% 30.33 in 10.0 mi Variable 3.5 mph - N/A   Clear
7:54 PM 45.0 °F 41.8 °F 37.0 °F 74% 30.32 in 10.0 mi SSE 5.8 mph - N/A   Clear
8:54 PM 43.0 °F 40.3 °F 36.0 °F 76% 30.32 in 10.0 mi ESE 4.6 mph - N/A   Clear
9:54 PM 42.1 °F 39.2 °F 36.0 °F 79% 30.32 in 10.0 mi SE 4.6 mph - N/A   Clear
10:54 PM 41.0 °F - 36.0 °F 82% 30.32 in 10.0 mi Calm Calm - N/A   Clear
11:54 PM 39.9 °F - 36.0 °F 86% 30.29 in 10.0 mi Calm Calm - N/A   Clear